GW4716 Weather Reports


Display with metric or nautical units.
time (UTC)temp
F
wind
direction
speed
MPH
gust
MPH
rain 1hr
in
rain 24hr
in
rain mn
in
humidity
%
barometer
mb
20260503204050 60 68 2.0 3.0 0.00 0.00 0.00 28 1016.9
20260503203547 59 51 2.0 3.0 0.00 0.00 0.00 30 1017.0
20260503203044 58 58 1.0 7.0 0.00 0.00 0.00 28 1017.1
20260503202541 58 358 7.0 11.0 0.00 0.00 0.00 29 1017.0
20260503202034 58 66 6.0 10.0 0.00 0.00 0.00 28 1017.1
20260503201532 58 0 3.0 6.0 0.00 0.00 0.00 30 1017.2
20260503201028 58 347 5.0 9.0 0.00 0.00 0.00 31 1017.0
20260503200524 58 358 3.0 7.0 0.00 0.00 0.00 29 1017.3
20260503200015 58 104 4.0 9.0 0.00 0.00 0.00 30 1017.3
20260503195513 59 64 3.0 4.0 0.00 0.00 0.00 32 1017.4
20260503195009 59 342 6.0 8.0 0.00 0.00 0.00 31 1017.4
20260503194506 58 298 4.0 6.0 0.00 0.00 0.00 29 1017.4
20260503194000 58 45 4.0 4.0 0.00 0.00 0.00 28 1017.6
20260503193457 58 316 3.0 9.0 0.00 0.00 0.00 30 1017.4
20260503192952 59 145 2.0 3.0 0.00 0.00 0.00 27 1017.7
20260503192449 59 142 3.0 8.0 0.00 0.00 0.00 31 1017.5
20260503191944 58 135 3.0 8.0 0.00 0.00 0.00 29 1017.5
20260503191442 59 54 2.0 6.0 0.00 0.00 0.00 35 1017.6
20260503190938 57 209 2.0 7.0 0.00 0.00 0.00 32 1017.7
20260503190436 57 66 3.0 6.0 0.00 0.00 0.00 34 1017.9
20260503185933 57 161 4.0 7.0 0.00 0.00 0.00 34 1017.9
20260503185429 58 61 4.0 6.0 0.00 0.00 0.00 32 1018.1
20260503184928 58 59 1.0 3.0 0.00 0.00 0.00 33 1017.9
20260503184425 57 15 1.0 4.0 0.00 0.00 0.00 35 1018.1
20260503183922 57 140 2.0 6.0 0.00 0.00 0.00 33 1018.2
20260503183418 56 9 1.0 7.0 0.00 0.00 0.00 32 1018.4
20260503182915 56 344 9.0 14.0 0.00 0.00 0.00 32 1018.3
20260503182414 57 315 4.0 15.0 0.00 0.00 0.00 35 1018.4
20260503181911 56 341 4.0 10.0 0.00 0.00 0.00 38 1018.1
20260503181408 56 55 2.0 8.0 0.00 0.00 0.00 33 1018.4
20260503180904 56 41 6.0 9.0 0.00 0.00 0.00 34 1018.5
20260503180403 56 3 6.0 8.0 0.00 0.00 0.00 34 1018.6
20260503175858 57 171 3.0 3.0 0.00 0.00 0.00 31 1018.5
20260503175357 55 102 3.0 10.0 0.00 0.00 0.00 37 1018.4
20260503174857 57 11 3.0 6.0 0.00 0.00 0.00 36 1018.8
20260503174356 56 2 8.0 13.0 0.00 0.00 0.00 33 1018.5
20260503173851 55 40 6.0 9.0 0.00 0.00 0.00 33 1018.4
20260503173348 54 7 3.0 7.0 0.00 0.00 0.00 39 1018.3
20260503172844 55 43 6.0 7.0 0.00 0.00 0.00 31 1018.8
20260503172342 55 64 0.0 3.0 0.00 0.00 0.00 32 1018.5
20260503171838 55 311 2.0 7.0 0.00 0.00 0.00 37 1018.8
20260503171335 53 318 2.0 11.0 0.00 0.00 0.00 34 1018.9
20260503170832 53 171 1.0 23.0 0.00 0.00 0.00 35 1018.9
20260503170329 53 26 8.0 10.0 0.00 0.00 0.00 37 1019.0
20260503150721 51 52 4.0 8.0 0.00 0.00 0.00 43 1019.9
20260503150217 50 136 1.0 6.0 0.00 0.00 0.00 43 1020.0
20260503140142 48 19 5.0 13.0 0.00 0.00 0.00 46 1020.2
20260503131111 45 353 4.0 4.0 0.00 0.00 0.00 51 1020.0
20260503130608 45 349 8.0 13.0 0.00 0.00 0.00 51 1019.9
20260503130106 45 355 8.0 15.0 0.00 0.00 0.00 53 1020.1
20260503110458 41 253 0.0 0.0 0.00 0.00 0.00 59 1019.1
20260503090344 36 250 1.0 2.0 0.00 0.00 0.00 80 1017.9
20260503081311 38 12 2.0 6.0 0.00 0.00 0.00 77 1017.5
20260503080807 38 5 2.0 4.0 0.00 0.00 0.00 75 1017.6
20260503080305 39 25 1.0 8.0 0.00 0.00 0.00 71 1017.2
20260503072741 38 214 0.0 0.0 0.00 0.00 0.00 70 1016.9
20260503072238 38 260 1.0 2.0 0.00 0.00 0.00 69 1017.0
20260503071734 39 255 1.0 2.0 0.00 0.00 0.00 70 1017.0
20260503071231 39 258 0.0 0.0 0.00 0.00 0.00 70 1016.9
20260503070727 39 272 0.0 0.0 0.00 0.00 0.00 69 1017.0
20260503070226 38 236 1.0 2.0 0.00 0.00 0.00 70 1016.8
20260503060150 40 248 2.0 2.0 0.00 0.00 0.00 68 1016.8
20260503054637 41 312 0.0 2.0 0.00 0.00 0.00 65 1016.9
20260503054135 41 273 0.0 1.0 0.00 0.00 0.00 62 1017.0
20260503053633 41 351 3.0 4.0 0.00 0.00 0.00 62 1016.9
20260503053131 41 7 1.0 2.0 0.00 0.00 0.00 64 1016.7
20260503052627 42 74 1.0 3.0 0.00 0.00 0.00 61 1016.8
20260503052124 42 229 1.0 2.0 0.00 0.00 0.00 63 1016.7
20260503051619 42 333 0.0 2.0 0.00 0.00 0.00 61 1016.8
20260503051117 42 222 0.0 2.0 0.00 0.00 0.00 61 1016.4
20260503050613 42 25 4.0 7.0 0.00 0.00 0.00 62 1016.9
20260503050110 42 65 5.0 7.0 0.00 0.00 0.00 63 1016.7
20260503045607 42 335 0.0 3.0 0.00 0.00 0.00 65 1016.8
20260503045104 42 322 0.0 4.0 0.00 0.00 0.00 64 1016.8
20260503044601 42 242 1.0 2.0 0.00 0.00 0.00 69 1016.7
20260503044059 42 234 0.0 3.0 0.00 0.00 0.00 67 1016.9
20260503043554 42 216 2.0 3.0 0.00 0.00 0.00 70 1016.8
20260503043051 42 324 1.0 2.0 0.00 0.00 0.00 71 1016.8
20260503042548 42 313 0.0 1.0 0.00 0.00 0.00 71 1017.0
20260503042045 42 314 0.0 2.0 0.00 0.00 0.00 68 1016.6
20260503041542 42 298 0.0 3.0 0.00 0.00 0.00 68 1016.8
20260503041039 42 256 0.0 1.0 0.00 0.00 0.00 69 1016.8
20260503040537 42 250 0.0 1.0 0.00 0.00 0.00 69 1016.9
20260503040034 42 262 0.0 0.0 0.00 0.00 0.00 67 1016.8
20260503035530 42 249 1.0 1.0 0.00 0.00 0.00 69 1016.8
20260503035028 42 248 1.0 1.0 0.00 0.00 0.00 68 1017.0
20260503034525 42 249 1.0 1.0 0.00 0.00 0.00 66 1016.9
20260503034022 43 343 1.0 2.0 0.00 0.00 0.00 65 1016.9
20260503033519 43 334 1.0 3.0 0.00 0.00 0.00 64 1017.0
20260503033018 43 331 0.0 2.0 0.00 0.00 0.00 67 1016.8
20260503032515 42 109 1.0 2.0 0.00 0.00 0.00 63 1016.9
20260503032013 43 283 0.0 2.0 0.00 0.00 0.00 66 1016.9
20260503031511 42 42 5.0 6.0 0.00 0.00 0.00 64 1016.7
20260503031007 42 251 0.0 1.0 0.00 0.00 0.00 65 1016.8
20260503030503 42 252 0.0 2.0 0.00 0.00 0.00 65 1017.0
20260503030000 41 240 1.0 1.0 0.00 0.00 0.00 67 1017.0
20260503025457 42 224 1.0 2.0 0.00 0.00 0.00 67 1016.9
20260503024955 42 239 2.0 2.0 0.00 0.00 0.00 63 1016.9
20260503024451 43 255 1.0 1.0 0.00 0.00 0.00 64 1017.0
20260503023949 43 197 0.0 1.0 0.00 0.00 0.00 60 1017.2
20260503023445 43 250 1.0 2.0 0.00 0.00 0.00 60 1016.9
20260503022942 42 265 0.0 1.0 0.00 0.00 0.00 64 1017.0
20260503022437 42 263 1.0 3.0 0.00 0.00 0.00 60 1017.0
20260503021933 42 249 1.0 2.0 0.00 0.00 0.00 62 1016.9
20260503021430 42 243 2.0 2.0 0.00 0.00 0.00 62 1016.7
20260503020927 43 234 2.0 3.0 0.00 0.00 0.00 63 1016.8
20260503020425 42 244 3.0 3.0 0.00 0.00 0.00 65 1016.8
20260503015921 42 242 1.0 2.0 0.00 0.00 0.00 64 1016.6
20260503015418 43 244 2.0 3.0 0.00 0.00 0.00 63 1016.8
20260503014914 43 266 0.0 3.0 0.00 0.00 0.00 57 1016.7
20260503014411 43 242 1.0 1.0 0.00 0.00 0.00 61 1016.7
20260503013909 44 241 1.0 1.0 0.00 0.00 0.00 58 1016.8
20260503013406 45 359 1.0 2.0 0.00 0.00 0.00 54 1016.4
20260503012903 44 329 2.0 6.0 0.00 0.00 0.00 54 1016.4
20260503012401 44 357 1.0 2.0 0.00 0.00 0.00 57 1016.6
20260503011857 45 230 0.0 1.0 0.00 0.00 0.00 61 1016.2
20260503011349 46 221 2.0 2.0 0.00 0.00 0.00 52 1016.3
20260503010845 46 257 1.0 1.0 0.00 0.00 0.00 51 1016.0
20260503010342 46 213 2.0 3.0 0.00 0.00 0.00 52 1016.0
20260503005839 46 318 0.0 0.0 0.00 0.00 0.00 50 1016.0
20260503005337 46 304 0.0 0.0 0.00 0.00 0.00 52 1015.9
20260503004832 47 284 0.0 0.0 0.00 0.00 0.00 50 1015.7
20260503004330 47 231 1.0 3.0 0.00 0.00 0.00 48 1015.7
20260503003828 48 20 2.0 2.0 0.00 0.00 0.00 47 1015.7
20260503003324 48 293 3.0 4.0 0.00 0.00 0.00 48 1015.6
20260503002821 47 72 1.0 2.0 0.00 0.00 0.00 45 1015.5
20260503002318 47 243 1.0 2.0 0.00 0.00 0.00 50 1015.7
20260503001814 46 272 1.0 2.0 0.00 0.00 0.00 47 1015.4
20260503001311 47 238 0.0 2.0 0.00 0.00 0.00 52 1015.4
20260503000808 48 248 1.0 1.0 0.00 0.00 0.00 49 1015.4
20260503000305 48 122 1.0 7.0 0.00 0.00 0.00 42 1015.1
20260502235802 48 36 0.0 2.0 0.00 0.00 0.00 45 1015.2
20260502235300 49 24 1.0 1.0 0.00 0.00 0.00 47 1015.3
20260502234756 49 155 1.0 3.0 0.00 0.00 0.00 42 1015.0
20260502234253 49 299 1.0 1.0 0.00 0.00 0.00 43 1015.0
20260502233749 49 139 6.0 11.0 0.00 0.00 0.00 41 1015.1
20260502233246 49 113 3.0 4.0 0.00 0.00 0.00 42 1014.8
20260502232742 49 53 1.0 4.0 0.00 0.00 0.00 41 1014.9
20260502232239 49 306 2.0 4.0 0.00 0.00 0.00 43 1015.0
20260502231736 49 81 2.0 4.0 0.00 0.00 0.00 44 1014.8
20260502231234 49 164 0.0 3.0 0.00 0.00 0.00 44 1014.9
20260502230732 50 334 1.0 2.0 0.00 0.00 0.00 42 1014.7
20260502230230 50 28 2.0 4.0 0.00 0.00 0.00 41 1014.8
20260502225726 50 2 1.0 3.0 0.00 0.00 0.00 41 1015.0
20260502225223 50 358 0.0 1.0 0.00 0.00 0.00 43 1014.8
20260502224719 50 98 2.0 3.0 0.00 0.00 0.00 40 1014.8
20260502224216 50 44 2.0 8.0 0.00 0.00 0.00 41 1014.7
20260502223714 50 355 5.0 6.0 0.00 0.00 0.00 40 1014.8
20260502223212 50 138 1.0 2.0 0.00 0.00 0.00 41 1014.7
20260502222709 50 84 2.0 4.0 0.00 0.00 0.00 39 1014.9
20260502222206 50 349 3.0 4.0 0.00 0.00 0.00 41 1014.7
20260502221701 51 350 1.0 4.0 0.00 0.00 0.00 40 1014.7
20260502221159 51 100 1.0 7.0 0.00 0.00 0.00 40 1014.5
20260502220655 51 346 0.0 0.0 0.00 0.00 0.00 40 1014.6
20260502220151 51 48 2.0 3.0 0.00 0.00 0.00 43 1014.5
20260502215648 51 30 1.0 3.0 0.00 0.00 0.00 41 1014.6
20260502215145 51 359 2.0 3.0 0.00 0.00 0.00 41 1014.5
20260502214642 51 356 0.0 2.0 0.00 0.00 0.00 41 1014.4
20260502214139 51 219 1.0 2.0 0.00 0.00 0.00 40 1014.5
20260502213637 51 321 1.0 3.0 0.00 0.00 0.00 41 1014.5
20260502213134 51 221 6.0 8.0 0.00 0.00 0.00 42 1014.6
20260502212627 51 192 1.0 7.0 0.00 0.00 0.00 40 1014.5
20260502212125 51 223 0.0 2.0 0.00 0.00 0.00 42 1014.5
20260502211620 52 40 0.0 2.0 0.00 0.00 0.00 40 1014.5
20260502211117 52 357 1.0 6.0 0.00 0.00 0.00 39 1014.5
20260502210615 52 142 2.0 3.0 0.00 0.00 0.00 42 1014.4
20260502210111 53 133 2.0 6.0 0.00 0.00 0.00 42 1014.6
20260502205608 51 84 3.0 4.0 0.00 0.00 0.00 43 1014.4
20260502205105 52 75 4.0 4.0 0.00 0.00 0.00 41 1014.5
20260502204601 52 150 2.0 6.0 0.00 0.00 0.00 38 1014.6